User: anonymous   Login
Location: Unspecified
(0.0000°N, 0.0000°E)
Time: 09:22:02
(UTC+00:00)
Language:

Polar BEAR P87-1 - Orbit

View from above orbital plane
View from above orbital plane
View from above satellite
View from above satellite

Ground track
Ground track

The orbit data is extracted from the following two-line orbital elements,

1 17070U 86088A   18051.86565647 +.00000058 +00000-0 +48596-4 0  9996
2 17070 089.5352 314.8632 0040788 078.0990 325.4448 13.74749320568195
Epoch (UTC): 20 February 2018 20:46:32
Eccentricity: 0.0040788
inclination: 89.5352°
perigee height: 952 km
apogee height: 1012 km
right ascension of ascending node: 314.8632°
argument of perigee: 78.0990°
revolutions per day: 13.74749320
mean anomaly at epoch: 325.4448°
orbit number at epoch: 56819

The dashed part of the orbit path shows where the satellite is in the earth's shadow,  

DLR